Home   Weather   Krishnagiri   Past weeks

Flag for India Past Weather in Krishnagiri, Tamil Nadu, India — Yesterday and Last 2 Weeks

Now
77 °F

Passing clouds.


Feels Like: 78 °F
Forecast: 58 / 83 °F
Wind: 9 mph from Southeast

Location: Bangalore / Hindustan

Current Time: Jan 18, 2017 at 1:34:36 pm

Latest Report: Jan 18, 2017 at 1:00 pm


Visibility: 5 mi

Pressure: 30.07 "Hg

Humidity: 39%

Dew Point: 50 °F

Location of KrishnagiriLocation

Past Weather in Krishnagiri — Graph

°F

Krishnagiri Temperature Yesterday

Maximum temperature yesterday: 81 °F (at 1:30 pm)
Minimum temperature yesterday: 57 °F (at 7:00 am)
Average temperature yesterday: 71 °F

High & Low Weather Summary for the Past Weeks

 TemperatureHumidityPressure
High84 °F (Jan 3, 3:00 pm)100% (Jan 7, 6:30 am)30.15 "Hg (Jan 7, 6:30 am)
Low57 °F (Jan 17, 7:00 am)21% (Jan 17, 2:00 pm)29.86 "Hg (Jan 8, 3:00 pm)
Average72 °F57%30.01 "Hg
* Reported Jan 3 11:30 am — Jan 18 12:00 pm, Krishnagiri, Weather by CustomWeather, © 2017

Note: Actual official high and low records may vary slightly from our data, if they occured in-between our weather recording intervals... More about our weather records

Advertising

Krishnagiri Weather History for the Previous 24 Hours

Scroll right to see more
 ConditionsComfort  
Time TempWeatherWind HumidityBarometerVisibility
12:00 pm
Wed, Jan 18
75 °FPassing clouds.10 mph41%30.09 "Hg5 mi
11:30 am73 °FClear.12 mph47%30.09 "Hg5 mi
11:00 am72 °FClear.10 mph50%30.12 "Hg5 mi
10:30 am70 °FClear.12 mph53%30.12 "Hg5 mi
10:00 am68 °FPassing clouds.12 mph64%30.12 "Hg4 mi
9:30 am66 °FHaze.12 mph68%30.12 "Hg3 mi
9:00 am64 °FFog.12 mph78%30.12 "Hg2 mi
8:30 am61 °FFog.12 mph88%30.12 "Hg1 mi
8:00 am59 °FFog.6 mph94%30.12 "Hg1 mi
7:30 am57 °FFog.6 mph94%30.09 "Hg1 mi
7:00 am57 °FFog.7 mph88%30.09 "Hg2 mi
6:30 am57 °FFog.7 mph88%30.07 "Hg2 mi
5:30 am57 °FClear.7 mph88%30.07 "Hg4 mi
11:30 pm
Tue, Jan 17
63 °FClear.7 mph73%30.09 "Hg5 mi
10:30 pm66 °FClear.7 mph60%30.09 "Hg5 mi
8:30 pm70 °FClear.7 mph50%30.07 "Hg5 mi
7:30 pm72 °FClear.5 mph38%30.04 "Hg5 mi
6:30 pm73 °FSunny.5 mph36%30.01 "Hg10 mi
5:30 pm79 °FSunny.7 mph30%29.98 "Hg10 mi
5:00 pm81 °FSunny.7 mph24%29.98 "Hg10 mi
4:30 pm81 °FSunny.7 mph24%29.98 "Hg10 mi
4:00 pm81 °FSunny.7 mph24%29.98 "Hg10 mi
3:30 pm81 °FSunny.7 mph23%29.98 "Hg10 mi
3:00 pm81 °FSunny.7 mph21%29.98 "Hg10 mi
2:30 pm81 °FSunny.7 mph21%29.98 "Hg10 mi
2:00 pm81 °FSunny.7 mph21%30.01 "Hg10 mi
1:30 pm81 °FSunny.9 mph23%30.04 "Hg10 mi
1:00 pm79 °FSunny.9 mph26%30.04 "Hg10 mi
Weather by CustomWeather, © 2017

See weather overviewHow to use our weather pages